This is the latest recevied weather packets stored in our database for station/object KD9NSC. If no packets are shown the sender has not sent any weather packets the latest 1 day(s).
| Time | Temp. | Humidity | Pressure | Rain* | Wind** | Luminosity | Snow |
|---|---|---|---|---|---|---|---|
| 1778052226 | 7.78° C | 74% | 1012.1 hPa | 0 mm | - | 0 W/m² | - |
| 1778051318 | 8.33° C | 76% | 1012.1 hPa | 0 mm | - | 0 W/m² | - |
| 1778051015 | 8.33° C | 76% | 1012.1 hPa | 0 mm | - | 0 W/m² | - |
| 1778050410 | 8.33° C | 83% | 1012 hPa | 0 mm | - | 0 W/m² | - |
| 1778048895 | 8.33° C | 90% | 1011.9 hPa | 0 mm | - | 0 W/m² | - |
| 1778048288 | 8.33° C | 90% | 1012 hPa | 0 mm | - | 0 W/m² | - |
| 1778047985 | 8.33° C | 89% | 1012.1 hPa | 0 mm | - | 0 W/m² | - |
| 1778047077 | 8.33° C | 87% | 1012.2 hPa | 0 mm | - | 0 W/m² | - |
| 1778046471 | 8.33° C | 85% | 1012 hPa | 0 mm | - | 0 W/m² | - |
| 1778046168 | 8.33° C | 84% | 1012.2 hPa | 0 mm | - | 0 W/m² | - |
| 1778045260 | 8.33° C | 85% | 1011.7 hPa | 0 mm | - | 0 W/m² | - |
| 1778044050 | 8.33° C | 85% | 1011.5 hPa | 0 mm | - | 0 W/m² | - |
| 1778043444 | 8.89° C | 86% | 1011.7 hPa | 0 mm | - | 0 W/m² | - |
| 1778042838 | 8.89° C | 86% | 1011.9 hPa | 0 mm | - | 0 W/m² | - |
| 1778042233 | 8.89° C | 85% | 1012.1 hPa | 0 mm | - | 0 W/m² | - |
| 1778041629 | 8.89° C | 85% | 1012.1 hPa | 0 mm | - | 0 W/m² | - |
| 1778041327 | 8.89° C | 84% | 1012 hPa | 0 mm | - | 0 W/m² | - |
| 1778040722 | 8.89° C | 84% | 1012 hPa | 0 mm | - | 0 W/m² | - |
| 1778040419 | 8.89° C | 83% | 1011.8 hPa | 0 mm | - | 0 W/m² | - |
| 1778040116 | 8.89° C | 82% | 1011.9 hPa | 0 mm | - | 0 W/m² | - |
| 1778039813 | 8.89° C | 82% | 1011.8 hPa | 0 mm | - | 0 W/m² | - |
| 1778039510 | 8.89° C | 82% | 1011.9 hPa | 0 mm | - | 0 W/m² | - |
| 1778038904 | 8.89° C | 80% | 1011.5 hPa | 0 mm | - | 0 W/m² | - |
| 1778038601 | 8.89° C | 79% | 1011.7 hPa | 0 mm | - | 0 W/m² | - |
| 1778038298 | 8.89° C | 79% | 1011.7 hPa | 0 mm | - | 0 W/m² | - |
* Rain latest hour (hover to see other rain measurements)
** Current wind speed in m/s (hover to see current wind gust speed)